00:00:06,72D450E0,0,0,19612,0,0,145
00:00:14,72D451E0,0,0,19612,0,0,145
00:00:22,72D452E0,0,0,19612,0,0,145
00:00:38,72D454E0,0,0,19612,0,0,145
00:00:46,72D455E0,0,0,19612,0,0,146
00:00:54,72D456E0,0,0,19612,0,0,146
00:01:02,72D457E0,0,0,19612,0,0,146
00:01:10,72D458E0,0,0,19612,0,0,146
00:01:18,72D459E0,0,0,19612,0,0,145
00:01:26,72D45AE0,0,0,19612,0,0,145
00:01:42,72D45CE0,0,0,19612,0,0,145
00:01:50,72D45DE0,0,0,19612,0,0,144
00:01:58,72D45EE0,0,0,19612,0,0,144
00:02:06,72D45FE0,0,0,19612,0,0,143
00:02:14,72D460E0,0,0,19612,0,0,143
00:02:22,72D461E0,0,0,19612,0,0,143
00:02:30,72D462E0,0,0,19612,0,0,142
00:02:46,72D464E0,0,0,19612,0,0,142
00:02:54,72D465E0,0,0,19612,0,0,141
00:03:02,72D466E0,0,0,19612,0,0,141
00:03:10,72D467E0,0,0,19612,0,0,141
00:03:18,72D468E0,0,0,19612,0,0,141
00:03:26,72D469E0,0,0,19612,0,0,141
00:03:34,72D46AE0,0,0,19612,0,0,141
00:03:50,72D46CE0,0,0,19612,0,0,141
00:03:58,72D46DE0,0,0,19612,0,0,141
00:04:06,72D46EE0,0,0,19612,0,0,142
00:04:14,72D46FE0,0,0,19612,0,0,142
00:04:22,72D470E0,0,0,19612,0,0,142
00:04:30,72D471E0,0,0,19612,0,0,142
00:04:38,72D472E0,0,0,19612,0,0,142
00:04:54,72D474E0,0,0,19612,0,0,143
00:05:02,72D475E0,0,0,19612,0,0,143
00:05:10,72D476E0,0,0,19612,0,0,143
00:05:18,72D477E0,0,0,19612,0,0,144
00:05:26,72D478E0,0,0,19612,0,0,144
00:05:34,72D479E0,0,0,19612,0,0,144
00:05:42,72D47AE0,0,0,19612,0,0,144
00:05:58,72D47CE0,0,0,19612,0,0,144
00:06:06,72D47DE0,0,0,19612,0,0,144
00:06:14,72D47EE0,0,0,19612,0,0,144
00:06:22,72D47FE0,0,0,19612,0,0,145
00:06:30,72D480E0,0,0,19612,0,0,145
00:06:38,72D481E0,0,0,19612,0,0,145
00:06:46,72D482E0,0,0,19612,0,0,145
00:07:02,72D484E0,0,0,19612,0,0,145
00:07:10,72D485E0,0,0,19612,0,0,146
00:07:18,72D486E0,0,0,19612,0,0,146
00:07:26,72D487E0,0,0,19612,0,0,146
00:07:34,72D488E0,0,0,19612,0,0,146
00:07:42,72D489E0,0,0,19612,0,0,145
00:07:50,72D48AE0,0,0,19612,0,0,145
00:08:06,72D48CE0,0,0,19612,0,0,144
00:08:14,72D48DE0,0,0,19612,0,0,144
00:08:22,72D48EE0,0,0,19612,0,0,143
00:08:30,72D48FE0,0,0,19612,0,0,143
00:08:38,72D490E0,0,0,19612,0,0,143
00:08:46,72D491E0,0,0,19612,0,0,143
00:08:54,72D492E0,0,0,19612,0,0,142
00:09:10,72D494E0,0,0,19612,0,0,142
00:09:18,72D495E0,0,0,19612,0,0,141
00:09:26,72D496E0,0,0,19612,0,0,141
00:09:34,72D497E0,0,0,19612,0,0,141
00:09:42,72D498E0,0,0,19612,0,0,141
00:09:50,72D499E0,0,0,19612,0,0,141
00:09:58,72D49AE0,0,0,19612,0,0,141
00:10:14,72D49CE0,0,0,19612,0,0,141
00:10:22,72D49DE0,0,0,19612,0,0,141
00:10:30,72D49EE0,0,0,19612,0,0,142
00:10:38,72D49FE0,0,0,19612,0,0,142
00:10:46,72D4A0E0,0,0,19612,0,0,142
00:10:54,72D4A1E0,0,0,19612,0,0,142
00:11:02,72D4A2E0,0,0,19612,0,0,143
00:11:18,72D4A4E0,0,0,19612,0,0,143
00:11:26,72D4A5E0,0,0,19612,0,0,143
00:11:34,72D4A6E0,0,0,19612,0,0,143
00:11:42,72D4A7E0,0,0,19612,0,0,143
00:11:50,72D4A8E0,0,0,19612,0,0,144
00:11:58,72D4A9E0,0,0,19612,0,0,144
00:12:06,72D4AAE0,0,0,19612,0,0,144
00:12:22,72D4ACE0,0,0,19612,0,0,144
00:12:30,72D4ADE0,0,0,19612,0,0,145
00:12:38,72D4AEE0,0,0,19612,0,0,145
00:12:46,72D4AFE0,0,0,19612,0,0,145
00:12:54,72D4B0E0,0,0,19612,0,0,145
00:13:02,72D4B1E0,0,0,19612,0,0,145
00:13:10,72D4B2E0,0,0,19612,0,0,145
00:13:26,72D4B4E0,0,0,19612,0,0,145
00:13:34,72D4B5E0,0,0,19612,0,0,146
00:13:42,72D4B6E0,0,0,19612,0,0,146
00:13:50,72D4B7E0,0,0,19612,0,0,146
00:13:58,72D4B8E0,0,0,19612,0,0,146
00:14:06,72D4B9E0,0,0,19612,0,0,146
00:14:14,72D4BAE0,0,0,19612,0,0,145
00:14:30,72D4BCE0,0,0,19612,0,0,145
00:14:38,72D4BDE0,0,0,19612,0,0,144
00:14:46,72D4BEE0,0,0,19612,0,0,144
00:14:54,72D4BFE0,0,0,19612,0,0,143
00:15:02,72D4C0E0,0,0,19612,0,0,143
00:15:10,72D4C1E0,0,0,19612,0,0,143
00:15:18,72D4C2E0,0,0,19612,0,0,142
00:15:34,72D4C4E0,0,0,19612,0,0,142
00:15:42,72D4C5E0,0,0,19612,0,0,141
00:15:50,72D4C6E0,0,0,19612,0,0,141
00:15:58,72D4C7E0,0,0,19612,0,0,141
00:16:06,72D4C8E0,0,0,19612,0,0,141
00:16:14,72D4C9E0,0,0,19612,0,0,141
00:16:22,72D4CAE0,0,0,19612,0,0,141
00:16:38,72D4CCE0,0,0,19612,0,0,141
00:16:46,72D4CDE0,0,0,19612,0,0,141
00:16:54,72D4CEE0,0,0,19612,0,0,142
00:17:02,72D4CFE0,0,0,19612,0,0,142
00:17:10,72D4D0E0,0,0,19612,0,0,142
00:17:18,72D4D1E0,0,0,19612,0,0,142
00:17:26,72D4D2E0,0,0,19612,0,0,143
00:17:42,72D4D4E0,0,0,19612,0,0,143
00:17:50,72D4D5E0,0,0,19612,0,0,143
00:17:58,72D4D6E0,0,0,19612,0,0,143
00:18:06,72D4D7E0,0,0,19612,0,0,144
00:18:14,72D4D8E0,0,0,19612,0,0,144
00:18:22,72D4D9E0,0,0,19612,0,0,144
00:18:30,72D4DAE0,0,0,19612,0,0,144
00:18:46,72D4DCE0,0,0,19612,0,0,144
00:18:54,72D4DDE0,0,0,19612,0,0,144
00:19:02,72D4DEE0,0,0,19612,0,0,145
00:19:10,72D4DFE0,0,0,19612,0,0,145
00:19:18,72D4E0E0,0,0,19612,0,0,145
00:19:26,72D4E1E0,0,0,19612,0,0,145
00:19:34,72D4E2E0,0,0,19612,0,0,145
00:19:50,72D4E4E0,0,0,19612,0,0,145
00:19:58,72D4E5E0,0,0,19612,0,0,145
00:20:06,72D4E6E0,0,0,19612,0,0,145
00:20:14,72D4E7E0,0,0,19612,0,0,145
00:20:22,72D4E8E0,0,0,19612,0,0,145
00:20:30,72D4E9E0,0,0,19612,0,0,145
00:20:38,72D4EAE0,0,0,19612,0,0,145
00:20:54,72D4ECE0,0,0,19612,0,0,144
00:21:02,72D4EDE0,0,0,19612,0,0,144
00:21:10,72D4EEE0,0,0,19612,0,0,143
00:21:18,72D4EFE0,0,0,19612,0,0,143
00:21:26,72D4F0E0,0,0,19612,0,0,143
00:21:34,72D4F1E0,0,0,19612,0,0,142
00:21:42,72D4F2E0,0,0,19612,0,0,142
00:21:58,72D4F4E0,0,0,19612,0,0,141
00:22:06,72D4F5E0,0,0,19612,0,0,141
00:22:14,72D4F6E0,0,0,19612,0,0,141
00:22:22,72D4F7E0,0,0,19612,0,0,141
00:22:30,72D4F8E0,0,0,19612,0,0,141
00:22:38,72D4F9E0,0,0,19612,0,0,141
00:22:46,72D4FAE0,0,0,19612,0,0,141
00:23:02,72D4FCE0,0,0,19612,0,0,141
00:23:10,72D4FDE0,0,0,19612,0,0,142
00:23:18,72D4FEE0,0,0,19612,0,0,142
00:23:26,72D4FFE0,0,0,19612,0,0,142
00:23:34,72D500E0,0,0,19612,0,0,142
00:23:42,72D501E0,0,0,19612,0,0,142
00:23:50,72D502E0,0,0,19612,0,0,143
00:24:06,72D504E0,0,0,19612,0,0,143
00:24:14,72D505E0,0,0,19612,0,0,143
00:24:22,72D506E0,0,0,19612,0,0,144
00:24:30,72D507E0,0,0,19612,0,0,144
00:24:38,72D508E0,0,0,19612,0,0,144
00:24:46,72D509E0,0,0,19612,0,0,144
00:24:54,72D50AE0,0,0,19612,0,0,144
00:25:10,72D50CE0,0,0,19612,0,0,144
00:25:18,72D50DE0,0,0,19612,0,0,144
00:25:26,72D50EE0,0,0,19612,0,0,145
00:25:34,72D50FE0,0,0,19612,0,0,145
00:25:42,72D510E0,0,0,19612,0,0,145
00:25:50,72D511E0,0,0,19612,0,0,145
00:25:58,72D512E0,0,0,19612,0,0,145
00:26:14,72D514E0,0,0,19612,0,0,146
00:26:22,72D515E0,0,0,19612,0,0,146
00:26:30,72D516E0,0,0,19612,0,0,146
00:26:38,72D517E0,0,0,19612,0,0,146
00:26:46,72D518E0,0,0,19612,0,0,145
00:26:54,72D519E0,0,0,19612,0,0,145
00:27:02,72D51AE0,0,0,19612,0,0,144
00:27:18,72D51CE0,0,0,19612,0,0,144
00:27:26,72D51DE0,0,0,19612,0,0,143
00:27:34,72D51EE0,0,0,19612,0,0,143
00:27:42,72D51FE0,0,0,19612,0,0,143
00:27:50,72D520E0,0,0,19612,0,0,142
00:27:58,72D521E0,0,0,19612,0,0,142
00:28:06,72D522E0,0,0,19612,0,0,142
00:28:22,72D524E0,0,0,19612,0,0,141
00:28:30,72D525E0,0,0,19612,0,0,141
00:28:38,72D526E0,0,0,19612,0,0,141
00:28:46,72D527E0,0,0,19612,0,0,141
00:28:54,72D528E0,0,0,19612,0,0,141
00:29:02,72D529E0,0,0,19612,0,0,141
00:29:10,72D52AE0,0,0,19612,0,0,141
00:29:26,72D52CE0,0,0,19612,0,0,142
00:29:34,72D52DE0,0,0,19612,0,0,142
00:29:42,72D52EE0,0,0,19612,0,0,142
00:29:50,72D52FE0,0,0,19612,0,0,142
00:29:58,72D530E0,0,0,19612,0,0,143
00:30:06,72D531E0,0,0,19612,0,0,143
00:30:14,72D532E0,0,0,19612,0,0,143
00:30:30,72D534E0,0,0,19612,0,0,143
00:30:38,72D535E0,0,0,19612,0,0,143
00:30:46,72D536E0,0,0,19612,0,0,144
00:30:54,72D537E0,0,0,19612,0,0,144
00:31:02,72D538E0,0,0,19612,0,0,144
00:31:10,72D539E0,0,0,19612,0,0,144
00:31:18,72D53AE0,0,0,19612,0,0,144
00:31:34,72D53CE0,0,0,19612,0,0,145
00:31:42,72D53DE0,0,0,19612,0,0,145
00:31:50,72D53EE0,0,0,19612,0,0,145
00:31:58,72D53FE0,0,0,19612,0,0,145
00:32:06,72D540E0,0,0,19612,0,0,145
00:32:14,72D541E0,0,0,19612,0,0,145
00:32:22,72D542E0,0,0,19612,0,0,145
00:32:38,72D544E0,0,0,19612,0,0,146
00:32:46,72D545E0,0,0,19612,0,0,146
00:32:54,72D546E0,0,0,19612,0,0,146
00:33:02,72D547E0,0,0,19612,0,0,146
00:33:10,72D548E0,0,0,19612,0,0,145
00:33:18,72D549E0,0,0,19612,0,0,145
00:33:26,72D54AE0,0,0,19612,0,0,145
00:33:42,72D54CE0,0,0,19612,0,0,144
00:33:50,72D54DE0,0,0,19612,0,0,143
00:33:58,72D54EE0,0,0,19612,0,0,143
00:34:06,72D54FE0,0,0,19612,0,0,143
00:34:14,72D550E0,0,0,19612,0,0,142
00:34:22,72D551E0,0,0,19612,0,0,142
00:34:30,72D552E0,0,0,19612,0,0,142
00:34:46,72D554E0,0,0,19612,0,0,141
00:34:54,72D555E0,0,0,19612,0,0,141
00:35:02,72D556E0,0,0,19612,0,0,141
00:35:10,72D557E0,0,0,19612,0,0,141
00:35:18,72D558E0,0,0,19612,0,0,141
00:35:26,72D559E0,0,0,19612,0,0,141
00:35:34,72D55AE0,0,0,19612,0,0,141
00:35:50,72D55CE0,0,0,19612,0,0,142
00:35:58,72D55DE0,0,0,19612,0,0,142
00:36:06,72D55EE0,0,0,19612,0,0,142
00:36:14,72D55FE0,0,0,19612,0,0,142
00:36:22,72D560E0,0,0,19612,0,0,142
00:36:30,72D561E0,0,0,19612,0,0,143
00:36:38,72D562E0,0,0,19612,0,0,143
00:36:54,72D564E0,0,0,19612,0,0,143
00:37:02,72D565E0,0,0,19612,0,0,144
00:37:10,72D566E0,0,0,19612,0,0,144
00:37:18,72D567E0,0,0,19612,0,0,144
00:37:26,72D568E0,0,0,19612,0,0,144
00:37:34,72D569E0,0,0,19612,0,0,144
00:37:42,72D56AE0,0,0,19612,0,0,144
00:37:58,72D56CE0,0,0,19612,0,0,144
00:38:06,72D56DE0,0,0,19612,0,0,145
00:38:14,72D56EE0,0,0,19612,0,0,145
00:38:22,72D56FE0,0,0,19612,0,0,145
00:38:30,72D570E0,0,0,19612,0,0,145
00:38:38,72D571E0,0,0,19612,0,0,145
00:38:46,72D572E0,0,0,19612,0,0,145
00:39:02,72D574E0,0,0,19612,0,0,146
00:39:10,72D575E0,0,0,19612,0,0,146
00:39:18,72D576E0,0,0,19612,0,0,145
00:39:26,72D577E0,0,0,19612,0,0,145
00:39:34,72D578E0,0,0,19612,0,0,145
00:39:42,72D579E0,0,0,19612,0,0,144
00:39:50,72D57AE0,0,0,19612,0,0,144
00:40:06,72D57CE0,0,0,19612,0,0,143
00:40:14,72D57DE0,0,0,19612,0,0,143
00:40:22,72D57EE0,0,0,19612,0,0,143
00:40:30,72D57FE0,0,0,19612,0,0,143
00:40:38,72D580E0,0,0,19612,0,0,142
00:40:46,72D581E0,0,0,19612,0,0,142
00:40:54,72D582E0,0,0,19612,0,0,142
00:41:10,72D584E0,0,0,19612,0,0,141
00:41:18,72D585E0,0,0,19612,0,0,141
00:41:26,72D586E0,0,0,19612,0,0,141
00:41:34,72D587E0,0,0,19612,0,0,141
00:41:42,72D588E0,0,0,19612,0,0,141
00:41:50,72D589E0,0,0,19612,0,0,141
00:41:58,72D58AE0,0,0,19612,0,0,141
00:42:14,72D58CE0,0,0,19612,0,0,142
00:42:22,72D58DE0,0,0,19612,0,0,142
00:42:30,72D58EE0,0,0,19612,0,0,142
00:42:38,72D58FE0,0,0,19612,0,0,142
00:42:46,72D590E0,0,0,19612,0,0,143
00:42:54,72D591E0,0,0,19612,0,0,143
00:43:02,72D592E0,0,0,19612,0,0,143
00:43:18,72D594E0,0,0,19612,0,0,143
00:43:26,72D595E0,0,0,19612,0,0,144
00:43:34,72D596E0,0,0,19612,0,0,144
00:43:42,72D597E0,0,0,19612,0,0,144
00:43:50,72D598E0,0,0,19612,0,0,144
00:43:58,72D599E0,0,0,19612,0,0,144
00:44:06,72D59AE0,0,0,19612,0,0,144
00:44:22,72D59CE0,0,0,19612,0,0,145
00:44:30,72D59DE0,0,0,19612,0,0,145
00:44:38,72D59EE0,0,0,19612,0,0,145
00:44:46,72D59FE0,0,0,19612,0,0,145
00:44:54,72D5A0E0,0,0,19612,0,0,145
00:45:02,72D5A1E0,0,0,19612,0,0,145
00:45:10,72D5A2E0,0,0,19612,0,0,146
00:45:26,72D5A4E0,0,0,19612,0,0,146
00:45:34,72D5A5E0,0,0,19612,0,0,146
00:45:42,72D5A6E0,0,0,19612,0,0,146
00:45:50,72D5A7E0,0,0,19612,0,0,145
00:45:58,72D5A8E0,0,0,19612,0,0,145
00:46:06,72D5A9E0,0,0,19612,0,0,144
00:46:14,72D5AAE0,0,0,19612,0,0,144
00:46:30,72D5ACE0,0,0,19612,0,0,143
00:46:38,72D5ADE0,0,0,19612,0,0,143
00:46:46,72D5AEE0,0,0,19612,0,0,142
00:46:54,72D5AFE0,0,0,19612,0,0,142
00:47:02,72D5B0E0,0,0,19612,0,0,142
00:47:10,72D5B1E0,0,0,19612,0,0,142
00:47:18,72D5B2E0,0,0,19612,0,0,141
00:47:34,72D5B4E0,0,0,19612,0,0,141
00:47:42,72D5B5E0,0,0,19612,0,0,141
00:47:50,72D5B6E0,0,0,19612,0,0,141
00:47:58,72D5B7E0,0,0,19612,0,0,141
00:48:06,72D5B8E0,0,0,19612,0,0,141
00:48:14,72D5B9E0,0,0,19612,0,0,141
00:48:22,72D5BAE0,0,0,19612,0,0,141
00:48:38,72D5BCE0,0,0,19612,0,0,142
00:48:46,72D5BDE0,0,0,19612,0,0,142
00:48:54,72D5BEE0,0,0,19612,0,0,142
00:49:02,72D5BFE0,0,0,19612,0,0,143
00:49:10,72D5C0E0,0,0,19612,0,0,143
00:49:18,72D5C1E0,0,0,19612,0,0,143
00:49:26,72D5C2E0,0,0,19612,0,0,143
00:49:42,72D5C4E0,0,0,19612,0,0,144
00:49:50,72D5C5E0,0,0,19612,0,0,144
00:49:58,72D5C6E0,0,0,19612,0,0,144
00:50:06,72D5C7E0,0,0,19612,0,0,144
00:50:14,72D5C8E0,0,0,19612,0,0,144
00:50:22,72D5C9E0,0,0,19612,0,0,144
00:50:30,72D5CAE0,0,0,19612,0,0,145
00:50:46,72D5CCE0,0,0,19612,0,0,145
00:50:54,72D5CDE0,0,0,19612,0,0,145
00:51:02,72D5CEE0,0,0,19612,0,0,145
00:51:10,72D5CFE0,0,0,19612,0,0,145
00:51:18,72D5D0E0,0,0,19612,0,0,145
00:51:26,72D5D1E0,0,0,19612,0,0,145
00:51:34,72D5D2E0,0,0,19612,0,0,145
00:51:50,72D5D4E0,0,0,19612,0,0,146
00:51:58,72D5D5E0,0,0,19612,0,0,145
00:52:06,72D5D6E0,0,0,19612,0,0,145
00:52:14,72D5D7E0,0,0,19612,0,0,145
00:52:22,72D5D8E0,0,0,19612,0,0,145
00:52:30,72D5D9E0,0,0,19612,0,0,144
00:52:38,72D5DAE0,0,0,19612,0,0,144
00:52:54,72D5DCE0,0,0,19612,0,0,143
00:53:02,72D5DDE0,0,0,19612,0,0,143
00:53:09,72D5DEE0,0,0,19612,0,0,143
00:53:17,72D5DFE0,0,0,19612,0,0,142
00:53:25,72D5E0E0,0,0,19612,0,0,142
00:53:33,72D5E1E0,0,0,19612,0,0,142
00:53:41,72D5E2E0,0,0,19612,0,0,141
00:53:57,72D5E4E0,0,0,19612,0,0,141
00:54:05,72D5E5E0,0,0,19612,0,0,141
00:54:13,72D5E6E0,0,0,19612,0,0,141
00:54:21,72D5E7E0,0,0,19612,0,0,141
00:54:29,72D5E8E0,0,0,19612,0,0,141
00:54:37,72D5E9E0,0,0,19612,0,0,141
00:54:45,72D5EAE0,0,0,19612,0,0,142
00:55:01,72D5ECE0,0,0,19612,0,0,142
00:55:09,72D5EDE0,0,0,19612,0,0,142
00:55:17,72D5EEE0,0,0,19612,0,0,142
00:55:25,72D5EFE0,0,0,19612,0,0,143
00:55:33,72D5F0E0,0,0,19612,0,0,143
00:55:41,72D5F1E0,0,0,19612,0,0,143
00:55:49,72D5F2E0,0,0,19612,0,0,143
00:56:05,72D5F4E0,0,0,19612,0,0,144
00:56:13,72D5F5E0,0,0,19612,0,0,144
00:56:21,72D5F6E0,0,0,19612,0,0,144
00:56:29,72D5F7E0,0,0,19612,0,0,144
00:56:37,72D5F8E0,0,0,19612,0,0,144
00:56:45,72D5F9E0,0,0,19612,0,0,144
00:56:53,72D5FAE0,0,0,19612,0,0,144
00:57:09,72D5FCE0,0,0,19612,0,0,145
00:57:17,72D5FDE0,0,0,19612,0,0,145
00:57:25,72D5FEE0,0,0,19612,0,0,145
00:57:33,72D5FFE0,0,0,19612,0,0,145
00:57:41,72D600E0,0,0,19612,0,0,145
00:57:49,72D601E0,0,0,19612,0,0,146
00:57:57,72D602E0,0,0,19612,0,0,146
00:58:13,72D604E0,0,0,19612,0,0,146
00:58:21,72D605E0,0,0,19612,0,0,145
00:58:29,72D606E0,0,0,19612,0,0,145
00:58:37,72D607E0,0,0,19612,0,0,145
00:58:45,72D608E0,0,0,19612,0,0,144
00:58:53,72D609E0,0,0,19612,0,0,144
00:59:01,72D60AE0,0,0,19612,0,0,143
00:59:17,72D60CE0,0,0,19612,0,0,143
00:59:25,72D60DE0,0,0,19612,0,0,143
00:59:33,72D60EE0,0,0,19612,0,0,142
00:59:41,72D60FE0,0,0,19612,0,0,142
00:59:49,72D610E0,0,0,19612,0,0,142
00:59:57,72D611E0,0,0,19612,0,0,141
01:00:05,72D612E0,0,0,19612,0,0,141
01:00:21,72D614E0,0,0,19612,0,0,141
01:00:29,72D615E0,0,0,19612,0,0,141
01:00:37,72D616E0,0,0,19612,0,0,141
01:00:45,72D617E0,0,0,19612,0,0,141
01:00:53,72D618E0,0,0,19612,0,0,141
01:01:01,72D619E0,0,0,19612,0,0,141
01:01:09,72D61AE0,0,0,19612,0,0,142
01:01:25,72D61CE0,0,0,19612,0,0,142
01:01:33,72D61DE0,0,0,19612,0,0,142
01:01:41,72D61EE0,0,0,19612,0,0,143
01:01:49,72D61FE0,0,0,19612,0,0,143
01:01:57,72D620E0,0,0,19612,0,0,143
01:02:05,72D621E0,0,0,19612,0,0,143
01:02:13,72D622E0,0,0,19612,0,0,143
01:02:29,72D624E0,0,0,19612,0,0,144
01:02:37,72D625E0,0,0,19612,0,0,144
01:02:45,72D626E0,0,0,19612,0,0,144
01:02:53,72D627E0,0,0,19612,0,0,144
01:03:01,72D628E0,0,0,19612,0,0,144
01:03:09,72D629E0,0,0,19612,0,0,145
01:03:17,72D62AE0,0,0,19612,0,0,145
01:03:33,72D62CE0,0,0,19612,0,0,145
01:03:41,72D62DE0,0,0,19612,0,0,145
01:03:49,72D62EE0,0,0,19612,0,0,145
01:03:57,72D62FE0,0,0,19612,0,0,145
01:04:05,72D630E0,0,0,19612,0,0,145
01:04:13,72D631E0,0,0,19612,0,0,146
01:04:21,72D632E0,0,0,19612,0,0,146
01:04:37,72D634E0,0,0,19612,0,0,146
01:04:45,72D635E0,0,0,19612,0,0,145
01:04:53,72D636E0,0,0,19612,0,0,145
01:05:01,72D637E0,0,0,19612,0,0,145
01:05:09,72D638E0,0,0,19612,0,0,144
01:05:17,72D639E0,0,0,19612,0,0,144
01:05:25,72D63AE0,0,0,19612,0,0,143
01:05:41,72D63CE0,0,0,19612,0,0,143
01:05:49,72D63DE0,0,0,19612,0,0,142
01:05:57,72D63EE0,0,0,19612,0,0,142
01:06:05,72D63FE0,0,0,19612,0,0,142
01:06:13,72D640E0,0,0,19612,0,0,141
01:06:21,72D641E0,0,0,19612,0,0,141
01:06:29,72D642E0,0,0,19612,0,0,141
01:06:45,72D644E0,0,0,19612,0,0,141
01:06:53,72D645E0,0,0,19612,0,0,141
01:07:01,72D646E0,0,0,19612,0,0,141
01:07:09,72D647E0,0,0,19612,0,0,141
01:07:17,72D648E0,0,0,19612,0,0,141
01:07:25,72D649E0,0,0,19612,0,0,142
01:07:33,72D64AE0,0,0,19612,0,0,142
01:07:49,72D64CE0,0,0,19612,0,0,142
01:07:57,72D64DE0,0,0,19612,0,0,143
01:08:05,72D64EE0,0,0,19612,0,0,143
01:08:13,72D64FE0,0,0,19612,0,0,143
01:08:21,72D650E0,0,0,19612,0,0,143
01:08:29,72D651E0,0,0,19612,0,0,143
01:08:37,72D652E0,0,0,19612,0,0,144
01:08:53,72D654E0,0,0,19612,0,0,144
01:09:01,72D655E0,0,0,19612,0,0,144
01:09:09,72D656E0,0,0,19612,0,0,144
01:09:17,72D657E0,0,0,19612,0,0,144
01:09:25,72D658E0,0,0,19612,0,0,144
01:09:33,72D659E0,0,0,19612,0,0,145
01:09:41,72D65AE0,0,0,19612,0,0,145
01:09:57,72D65CE0,0,0,19612,0,0,145
01:10:05,72D65DE0,0,0,19612,0,0,145
01:10:13,72D65EE0,0,0,19612,0,0,145
01:10:21,72D65FE0,0,0,19612,0,0,145
01:10:29,72D660E0,0,0,19612,0,0,145
01:10:37,72D661E0,0,0,19612,0,0,146
01:10:45,72D662E0,0,0,19612,0,0,146
01:11:01,72D664E0,0,0,19612,0,0,145
01:11:09,72D665E0,0,0,19612,0,0,145
01:11:17,72D666E0,0,0,19612,0,0,144
01:11:25,72D667E0,0,0,19612,0,0,144
01:11:33,72D668E0,0,0,19612,0,0,144
01:11:41,72D669E0,0,0,19612,0,0,144
01:11:49,72D66AE0,0,0,19612,0,0,143
01:12:05,72D66CE0,0,0,19612,0,0,143
01:12:13,72D66DE0,0,0,19612,0,0,142
01:12:21,72D66EE0,0,0,19612,0,0,142
01:12:29,72D66FE0,0,0,19612,0,0,142
01:12:37,72D670E0,0,0,19612,0,0,141
01:12:45,72D671E0,0,0,19612,0,0,141
01:12:53,72D672E0,0,0,19612,0,0,141
01:13:09,72D674E0,0,0,19612,0,0,141
01:13:17,72D675E0,0,0,19612,0,0,141
01:13:25,72D676E0,0,0,19612,0,0,141
01:13:33,72D677E0,0,0,19612,0,0,141
01:13:41,72D678E0,0,0,19612,0,0,142
01:13:49,72D679E0,0,0,19612,0,0,142
01:13:57,72D67AE0,0,0,19612,0,0,142
01:14:13,72D67CE0,0,0,19612,0,0,142
01:14:21,72D67DE0,0,0,19612,0,0,142
01:14:29,72D67EE0,0,0,19612,0,0,143
01:14:37,72D67FE0,0,0,19612,0,0,143
01:14:45,72D680E0,0,0,19612,0,0,143
01:14:53,72D681E0,0,0,19612,0,0,143
01:15:01,72D682E0,0,0,19612,0,0,144
01:15:17,72D684E0,0,0,19612,0,0,144
01:15:25,72D685E0,0,0,19612,0,0,144
01:15:33,72D686E0,0,0,19612,0,0,144
01:15:41,72D687E0,0,0,19612,0,0,144
01:15:49,72D688E0,0,0,19612,0,0,144
01:15:57,72D689E0,0,0,19612,0,0,145
01:16:05,72D68AE0,0,0,19612,0,0,145
01:16:21,72D68CE0,0,0,19612,0,0,145
01:16:29,72D68DE0,0,0,19612,0,0,145
01:16:37,72D68EE0,0,0,19612,0,0,145
01:16:45,72D68FE0,0,0,19612,0,0,146
01:16:53,72D690E0,0,0,19612,0,0,146
01:17:01,72D691E0,0,0,19612,0,0,146
01:17:09,72D692E0,0,0,19612,0,0,146
01:17:25,72D694E0,0,0,19612,0,0,145
01:17:33,72D695E0,0,0,19612,0,0,145
01:17:41,72D696E0,0,0,19612,0,0,144
01:17:49,72D697E0,0,0,19612,0,0,144
01:17:57,72D698E0,0,0,19612,0,0,143
01:18:05,72D699E0,0,0,19612,0,0,143
01:18:13,72D69AE0,0,0,19612,0,0,143
01:18:29,72D69CE0,0,0,19612,0,0,142
01:18:37,72D69DE0,0,0,19612,0,0,142
01:18:45,72D69EE0,0,0,19612,0,0,142
01:18:53,72D69FE0,0,0,19612,0,0,141
01:19:01,72D6A0E0,0,0,19612,0,0,141
01:19:09,72D6A1E0,0,0,19612,0,0,141
01:19:17,72D6A2E0,0,0,19612,0,0,141
01:19:33,72D6A4E0,0,0,19612,0,0,141
01:19:41,72D6A5E0,0,0,19612,0,0,141
01:19:49,72D6A6E0,0,0,19612,0,0,141
01:19:57,72D6A7E0,0,0,19612,0,0,141
01:20:05,72D6A8E0,0,0,19612,0,0,142
01:20:13,72D6A9E0,0,0,19612,0,0,142
01:20:21,72D6AAE0,0,0,19612,0,0,142
01:20:37,72D6ACE0,0,0,19612,0,0,143
01:20:45,72D6ADE0,0,0,19612,0,0,143
01:20:53,72D6AEE0,0,0,19612,0,0,143
01:21:01,72D6AFE0,0,0,19612,0,0,143
01:21:09,72D6B0E0,0,0,19612,0,0,143
01:21:17,72D6B1E0,0,0,19612,0,0,143
01:21:25,72D6B2E0,0,0,19612,0,0,144
01:21:41,72D6B4E0,0,0,19612,0,0,144
01:21:49,72D6B5E0,0,0,19612,0,0,144
01:21:57,72D6B6E0,0,0,19612,0,0,144
01:22:05,72D6B7E0,0,0,19612,0,0,145
01:22:13,72D6B8E0,0,0,19612,0,0,145
01:22:21,72D6B9E0,0,0,19612,0,0,145
01:22:29,72D6BAE0,0,0,19612,0,0,145
01:22:45,72D6BCE0,0,0,19612,0,0,145
01:22:53,72D6BDE0,0,0,19612,0,0,145
01:23:01,72D6BEE0,0,0,19612,0,0,145
01:23:09,72D6BFE0,0,0,19612,0,0,145
01:23:17,72D6C0E0,0,0,19612,0,0,146
01:23:25,72D6C1E0,0,0,19612,0,0,146
01:23:33,72D6C2E0,0,0,19612,0,0,146
01:23:49,72D6C4E0,0,0,19612,0,0,145
01:23:57,72D6C5E0,0,0,19612,0,0,145
01:24:05,72D6C6E0,0,0,19612,0,0,144
01:24:13,72D6C7E0,0,0,19612,0,0,144
01:24:21,72D6C8E0,0,0,19612,0,0,144
01:24:29,72D6C9E0,0,0,19612,0,0,143
01:24:37,72D6CAE0,0,0,19612,0,0,143
01:24:53,72D6CCE0,0,0,19612,0,0,142
01:25:01,72D6CDE0,0,0,19612,0,0,142
01:25:09,72D6CEE0,0,0,19612,0,0,141
01:25:17,72D6CFE0,0,0,19612,0,0,141
01:25:25,72D6D0E0,0,0,19612,0,0,141
01:25:33,72D6D1E0,0,0,19612,0,0,141
01:25:41,72D6D2E0,0,0,19612,0,0,141
01:25:57,72D6D4E0,0,0,19612,0,0,141
01:26:05,72D6D5E0,0,0,19612,0,0,141
01:26:13,72D6D6E0,0,0,19612,0,0,141
01:26:21,72D6D7E0,0,0,19612,0,0,141
01:26:29,72D6D8E0,0,0,19612,0,0,142
01:26:37,72D6D9E0,0,0,19612,0,0,142
01:26:45,72D6DAE0,0,0,19612,0,0,142
01:27:01,72D6DCE0,0,0,19612,0,0,142
01:27:09,72D6DDE0,0,0,19612,0,0,143
01:27:17,72D6DEE0,0,0,19612,0,0,143
01:27:25,72D6DFE0,0,0,19612,0,0,143
01:27:33,72D6E0E0,0,0,19612,0,0,143
01:27:41,72D6E1E0,0,0,19612,0,0,144
01:27:49,72D6E2E0,0,0,19612,0,0,144
01:28:05,72D6E4E0,0,0,19612,0,0,144
01:28:13,72D6E5E0,0,0,19612,0,0,144
01:28:21,72D6E6E0,0,0,19612,0,0,144
01:28:29,72D6E7E0,0,0,19612,0,0,144
01:28:37,72D6E8E0,0,0,19612,0,0,145
01:28:45,72D6E9E0,0,0,19612,0,0,145
01:28:53,72D6EAE0,0,0,19612,0,0,145
01:29:09,72D6ECE0,0,0,19612,0,0,145
01:29:17,72D6EDE0,0,0,19612,0,0,145
01:29:25,72D6EEE0,0,0,19612,0,0,145
01:29:33,72D6EFE0,0,0,19612,0,0,146
01:29:41,72D6F0E0,0,0,19612,0,0,146
01:29:49,72D6F1E0,0,0,19612,0,0,146
01:29:57,72D6F2E0,0,0,19612,0,0,145
01:30:13,72D6F4E0,0,0,19612,0,0,145
01:30:21,72D6F5E0,0,0,19612,0,0,144
01:30:29,72D6F6E0,0,0,19612,0,0,144
01:30:37,72D6F7E0,0,0,19612,0,0,143
01:30:45,72D6F8E0,0,0,19612,0,0,143
01:30:53,72D6F9E0,0,0,19612,0,0,143
01:31:01,72D6FAE0,0,0,19612,0,0,143
01:31:17,72D6FCE0,0,0,19612,0,0,142
01:31:25,72D6FDE0,0,0,19612,0,0,142
01:31:33,72D6FEE0,0,0,19612,0,0,141
01:31:41,72D6FFE0,0,0,19612,0,0,141
01:31:49,72D700E0,0,0,19612,0,0,141
01:31:57,72D701E0,0,0,19612,0,0,140
01:32:05,72D702E0,0,0,19612,0,0,140
01:32:21,72D704E0,0,0,19612,0,0,141
01:32:29,72D705E0,0,0,19612,0,0,141
01:32:37,72D706E0,0,0,19612,0,0,141
01:32:45,72D707E0,0,0,19612,0,0,142
01:32:53,72D708E0,0,0,19612,0,0,142
01:33:01,72D709E0,0,0,19612,0,0,142
01:33:09,72D70AE0,0,0,19612,0,0,142
01:33:25,72D70CE0,0,0,19612,0,0,143
01:33:33,72D70DE0,0,0,19612,0,0,143
01:33:41,72D70EE0,0,0,19612,0,0,143
01:33:49,72D70FE0,0,0,19612,0,0,143
01:33:57,72D710E0,0,0,19612,0,0,143
01:34:05,72D711E0,0,0,19612,0,0,144
01:34:13,72D712E0,0,0,19612,0,0,144
01:34:29,72D714E0,0,0,19612,0,0,144
01:34:37,72D715E0,0,0,19612,0,0,144
01:34:45,72D716E0,0,0,19612,0,0,145
01:34:53,72D717E0,0,0,19612,0,0,145
01:35:01,72D718E0,0,0,19612,0,0,145
01:35:09,72D719E0,0,0,19612,0,0,145
01:35:17,72D71AE0,0,0,19612,0,0,145
01:35:33,72D71CE0,0,0,19612,0,0,145
01:35:41,72D71DE0,0,0,19612,0,0,145
01:35:49,72D71EE0,0,0,19612,0,0,146
01:35:57,72D71FE0,0,0,19612,0,0,146
01:36:05,72D720E0,0,0,19612,0,0,146
01:36:13,72D721E0,0,0,19612,0,0,145
01:36:21,72D722E0,0,0,19612,0,0,145
01:36:37,72D724E0,0,0,19612,0,0,144
01:36:45,72D725E0,0,0,19612,0,0,144
01:36:53,72D726E0,0,0,19612,0,0,144
01:37:01,72D727E0,0,0,19612,0,0,143
01:37:09,72D728E0,0,0,19612,0,0,143
01:37:17,72D729E0,0,0,19612,0,0,142
01:37:25,72D72AE0,0,0,19612,0,0,142
01:37:41,72D72CE0,0,0,19612,0,0,142
01:37:49,72D72DE0,0,0,19612,0,0,141
01:37:57,72D72EE0,0,0,19612,0,0,141
01:38:05,72D72FE0,0,0,19612,0,0,141
01:38:13,72D730E0,0,0,19612,0,0,141
01:38:21,72D731E0,0,0,19612,0,0,141
01:38:29,72D732E0,0,0,19612,0,0,141
01:38:45,72D734E0,0,0,19612,0,0,141